EZY65WL EGGW-LIMC

Flight info

Callsign EZY65WL
Flight time 1h 37m
Altitude 35000
Route MATCH Q295 BRAIN P44 DAGGA M85 ITVIP L10 DVR UL9 KONAN DCT KOK DCT CIV DCT SUTAL DCT GTQ DCT OBORN DCT DEVDI/N0465F310 DCT BASGO Z424 RIXUV
Aircraft A320/M-SDE3FGHIRWY/LB1

Departure

Time 2026-04-30 11:44
Airport London Luton Airport (EGGW)

Arrival

Time 2026-04-30 13:22
Airport Milan Malpensa International Airport (LIMC)
Time Latitude Longitude Altitude Speed Heading
2026-04-30 11:30 51.87650 -0.37352 521 ft 0 kts 10°
2026-04-30 11:35 51.87636 -0.37356 521 ft 4 kts 10°
2026-04-30 11:35 51.87611 -0.37364 521 ft 1 kts 10°
2026-04-30 11:35 51.87589 -0.37366 521 ft 4 kts 332°
2026-04-30 11:35 51.87577 -0.37339 522 ft 4 kts 277°
2026-04-30 11:36 51.87575 -0.37316 522 ft 0 kts 277°
2026-04-30 11:40 51.87577 -0.37336 522 ft 6 kts 277°
2026-04-30 11:40 51.87577 -0.37432 523 ft 9 kts 242°
2026-04-30 11:40 51.87527 -0.37483 521 ft 12 kts 206°
2026-04-30 11:41 51.87490 -0.37614 523 ft 15 kts 254°
2026-04-30 11:41 51.87460 -0.37797 522 ft 19 kts 255°
2026-04-30 11:41 51.87417 -0.38009 524 ft 18 kts 237°
2026-04-30 11:41 51.87359 -0.38074 523 ft 0 kts 207°
2026-04-30 11:42 51.87348 -0.38083 522 ft 5 kts 207°
2026-04-30 11:43 51.87298 -0.38109 522 ft 10 kts 178°
2026-04-30 11:43 51.87262 -0.38050 523 ft 9 kts 84°
2026-04-30 11:43 51.87305 -0.37740 523 ft 64 kts 75°
2026-04-30 11:43 51.87487 -0.36650 529 ft 132 kts 76°
2026-04-30 11:44 51.87759 -0.35081 1018 ft 151 kts 77°
2026-04-30 11:44 51.88069 -0.33284 1419 ft 191 kts 78°
2026-04-30 11:44 51.88466 -0.30928 1693 ft 232 kts 77°
2026-04-30 11:44 51.88897 -0.28434 2847 ft 235 kts 78°
2026-04-30 11:45 51.89343 -0.25868 3784 ft 238 kts 79°
2026-04-30 11:45 51.89509 -0.23235 4579 ft 238 kts 104°
2026-04-30 11:45 51.88766 -0.20885 5379 ft 240 kts 135°
2026-04-30 11:45 51.87317 -0.19461 6189 ft 248 kts 153°
2026-04-30 11:46 51.85722 -0.18317 6985 ft 252 kts 154°
2026-04-30 11:46 51.84101 -0.17176 7770 ft 257 kts 154°
2026-04-30 11:46 51.82450 -0.16014 8553 ft 261 kts 154°
2026-04-30 11:46 51.80776 -0.14826 9425 ft 265 kts 154°
2026-04-30 11:47 51.79081 -0.13616 10211 ft 269 kts 153°
2026-04-30 11:47 51.77375 -0.12231 10637 ft 284 kts 142°
2026-04-30 11:47 51.75998 -0.09818 10843 ft 305 kts 119°
2026-04-30 11:47 51.75378 -0.06430 11000 ft 330 kts 96°
2026-04-30 11:48 51.75390 -0.02639 11193 ft 350 kts 88°
2026-04-30 11:48 51.75661 0.01310 11715 ft 358 kts 84°
2026-04-30 11:48 51.76062 0.05309 12297 ft 363 kts 83°
2026-04-30 11:48 51.76492 0.09344 12957 ft 366 kts 84°
2026-04-30 11:49 51.76471 0.13429 13562 ft 366 kts 102°
2026-04-30 11:49 51.75641 0.17299 14160 ft 368 kts 120°
2026-04-30 11:49 51.74116 0.20623 14704 ft 371 kts 130°
2026-04-30 11:49 51.72433 0.23801 15255 ft 374 kts 130°
2026-04-30 11:50 51.70738 0.26997 15805 ft 376 kts 130°
2026-04-30 11:50 51.69026 0.30222 16336 ft 379 kts 130°
2026-04-30 11:50 51.67307 0.33466 16855 ft 382 kts 130°
2026-04-30 11:50 51.65577 0.36733 17379 ft 385 kts 130°
2026-04-30 11:51 51.63830 0.40031 17887 ft 388 kts 130°
2026-04-30 11:51 51.62071 0.43353 18386 ft 391 kts 131°
2026-04-30 11:51 51.60296 0.46696 18842 ft 394 kts 131°
2026-04-30 11:51 51.58510 0.50053 19289 ft 396 kts 131°
2026-04-30 11:52 51.56712 0.53423 19719 ft 398 kts 131°
2026-04-30 11:52 51.54902 0.56808 20149 ft 400 kts 131°
2026-04-30 11:52 51.53102 0.60166 20571 ft 403 kts 131°
2026-04-30 11:52 51.51268 0.63588 20991 ft 405 kts 130°
2026-04-30 11:53 51.49425 0.67026 21401 ft 407 kts 130°
2026-04-30 11:53 51.47576 0.70471 21799 ft 409 kts 130°
2026-04-30 11:53 51.45714 0.73934 22192 ft 411 kts 130°
2026-04-30 11:53 51.43842 0.77416 22573 ft 413 kts 130°
2026-04-30 11:54 51.41966 0.80902 22953 ft 414 kts 130°
2026-04-30 11:54 51.40077 0.84409 23328 ft 416 kts 130°
2026-04-30 11:54 51.38177 0.87928 23711 ft 418 kts 130°
2026-04-30 11:54 51.36266 0.91456 24031 ft 421 kts 130°
2026-04-30 11:55 51.34345 0.94996 24353 ft 422 kts 130°
2026-04-30 11:55 51.32415 0.98545 24666 ft 424 kts 130°
2026-04-30 11:55 51.30476 1.02109 24968 ft 425 kts 130°
2026-04-30 11:55 51.28581 1.05740 25248 ft 427 kts 126°
2026-04-30 11:56 51.26934 1.09690 25525 ft 428 kts 123°
2026-04-30 11:56 51.25331 1.13645 25813 ft 430 kts 123°
2026-04-30 11:56 51.23705 1.17656 26068 ft 432 kts 123°
2026-04-30 11:56 51.22072 1.21682 26337 ft 433 kts 123°
2026-04-30 11:57 51.20428 1.25728 26615 ft 434 kts 123°
2026-04-30 11:57 51.18778 1.29779 26878 ft 436 kts 122°
2026-04-30 11:57 51.17349 1.34050 27135 ft 438 kts 114°
2026-04-30 11:57 51.16384 1.38641 27509 ft 438 kts 105°
2026-04-30 11:58 51.15899 1.43432 27896 ft 438 kts 96°
2026-04-30 11:58 51.15676 1.48266 28259 ft 438 kts 96°
2026-04-30 11:58 51.15450 1.53097 28612 ft 437 kts 96°
2026-04-30 11:58 51.15220 1.57919 28983 ft 436 kts 96°
2026-04-30 11:59 51.14985 1.62721 29360 ft 434 kts 96°
2026-04-30 11:59 51.14745 1.67516 29712 ft 434 kts 96°
2026-04-30 11:59 51.14502 1.72298 30073 ft 433 kts 97°
2026-04-30 11:59 51.14263 1.77014 30423 ft 432 kts 96°
2026-04-30 12:00 51.14022 1.81768 30726 ft 431 kts 96°
2026-04-30 12:00 51.13782 1.86523 31024 ft 430 kts 96°
2026-04-30 12:00 51.13540 1.91259 31323 ft 429 kts 96°
2026-04-30 12:00 51.13295 1.95984 31622 ft 428 kts 97°
2026-04-30 12:01 51.13046 2.00713 31923 ft 428 kts 97°
2026-04-30 12:01 51.12795 2.05424 32221 ft 427 kts 97°
2026-04-30 12:01 51.12543 2.10122 32528 ft 426 kts 97°
2026-04-30 12:01 51.12290 2.14812 32837 ft 425 kts 97°
2026-04-30 12:02 51.12036 2.19492 33139 ft 424 kts 97°
2026-04-30 12:02 51.11784 2.24171 33438 ft 423 kts 97°
2026-04-30 12:02 51.11532 2.28840 33720 ft 423 kts 97°
2026-04-30 12:02 51.11277 2.33496 34010 ft 422 kts 97°
2026-04-30 12:03 51.11018 2.38147 34287 ft 422 kts 97°
2026-04-30 12:03 51.10491 2.47443 34753 ft 422 kts 97°
2026-04-30 12:03 51.10229 2.52030 34959 ft 422 kts 97°
2026-04-30 12:04 51.09962 2.56679 35162 ft 422 kts 97°
2026-04-30 12:04 51.08702 2.65774 35279 ft 423 kts 113°
2026-04-30 12:05 51.05729 2.73816 35274 ft 423 kts 124°
2026-04-30 12:05 51.02385 2.81524 35275 ft 423 kts 124°
2026-04-30 12:06 50.99046 2.89222 35276 ft 423 kts 124°
2026-04-30 12:06 50.95703 2.96912 35271 ft 423 kts 124°
2026-04-30 12:07 50.92349 3.04590 35273 ft 423 kts 124°
2026-04-30 12:07 50.89018 3.12276 35270 ft 423 kts 123°
2026-04-30 12:08 50.85830 3.20039 35264 ft 423 kts 122°
2026-04-30 12:08 50.82672 3.27878 35260 ft 423 kts 122°
2026-04-30 12:09 50.79484 3.35688 35262 ft 423 kts 122°
2026-04-30 12:09 50.76263 3.43468 35263 ft 423 kts 123°
2026-04-30 12:10 50.73035 3.51228 35264 ft 423 kts 123°
2026-04-30 12:10 50.69804 3.58988 35272 ft 423 kts 122°
2026-04-30 12:11 50.66571 3.66745 35268 ft 423 kts 123°
2026-04-30 12:11 50.63332 3.74497 35264 ft 423 kts 122°
2026-04-30 12:12 50.60080 3.82237 35260 ft 424 kts 123°
2026-04-30 12:12 50.56819 3.89965 35264 ft 424 kts 123°
2026-04-30 12:13 50.53576 3.97654 35268 ft 424 kts 122°
2026-04-30 12:13 50.50316 4.05375 35271 ft 424 kts 123°
2026-04-30 12:14 50.47033 4.13105 35276 ft 424 kts 122°
2026-04-30 12:14 50.43754 4.20814 35280 ft 425 kts 123°
2026-04-30 12:15 50.40464 4.28508 35283 ft 425 kts 123°
2026-04-30 12:15 50.37169 4.36201 35283 ft 425 kts 122°
2026-04-30 12:16 50.33870 4.43882 35282 ft 425 kts 122°
2026-04-30 12:16 50.30584 4.51500 35279 ft 425 kts 123°
2026-04-30 12:17 50.25612 4.63004 35274 ft 425 kts 123°
2026-04-30 12:17 50.22290 4.70658 35272 ft 425 kts 123°
2026-04-30 12:18 50.18962 4.78303 35266 ft 426 kts 122°
2026-04-30 12:18 50.15630 4.85937 35266 ft 426 kts 123°
2026-04-30 12:19 50.12283 4.93563 35267 ft 426 kts 123°
2026-04-30 12:19 50.08952 5.01132 35267 ft 426 kts 122°
2026-04-30 12:20 50.05602 5.08746 35270 ft 426 kts 122°
2026-04-30 12:20 50.02252 5.16348 35269 ft 426 kts 122°
2026-04-30 12:21 49.99457 5.22669 35271 ft 426 kts 122°
2026-04-30 12:21 49.96087 5.30262 35268 ft 426 kts 123°
2026-04-30 12:22 49.92712 5.37846 35268 ft 427 kts 122°
2026-04-30 12:22 49.89331 5.45419 35276 ft 427 kts 123°
2026-04-30 12:23 49.85934 5.52995 35272 ft 428 kts 123°
2026-04-30 12:23 49.82539 5.60560 35281 ft 428 kts 123°
2026-04-30 12:24 49.79136 5.68123 35283 ft 428 kts 123°
2026-04-30 12:24 49.75729 5.75678 35289 ft 428 kts 123°
2026-04-30 12:25 49.72330 5.83179 35292 ft 428 kts 123°
2026-04-30 12:25 49.68906 5.90717 35294 ft 428 kts 123°
2026-04-30 12:26 49.65478 5.98241 35301 ft 428 kts 123°
2026-04-30 12:26 49.62040 6.05750 35297 ft 428 kts 123°
2026-04-30 12:27 49.58599 6.13269 35297 ft 429 kts 123°
2026-04-30 12:27 49.55150 6.20769 35297 ft 429 kts 123°
2026-04-30 12:28 49.51719 6.28210 35296 ft 429 kts 123°
2026-04-30 12:28 49.48153 6.35592 35295 ft 431 kts 130°
2026-04-30 12:29 49.43417 6.41308 35290 ft 439 kts 149°
2026-04-30 12:29 49.37829 6.45192 35285 ft 441 kts 153°
2026-04-30 12:30 49.32211 6.48992 35282 ft 441 kts 153°
2026-04-30 12:30 49.26596 6.52808 35278 ft 441 kts 153°
2026-04-30 12:31 49.20974 6.56624 35273 ft 442 kts 153°
2026-04-30 12:31 49.15350 6.60421 35273 ft 442 kts 153°
2026-04-30 12:32 49.09749 6.64180 35268 ft 442 kts 153°
2026-04-30 12:32 49.04112 6.67957 35266 ft 443 kts 153°
2026-04-30 12:33 48.98494 6.71816 35264 ft 441 kts 148°
2026-04-30 12:33 48.93259 6.76661 35262 ft 440 kts 145°
2026-04-30 12:34 48.88038 6.81555 35260 ft 441 kts 145°
2026-04-30 12:34 48.82797 6.86436 35268 ft 442 kts 145°
2026-04-30 12:35 48.77575 6.91273 35263 ft 443 kts 145°
2026-04-30 12:35 48.72308 6.96145 35264 ft 443 kts 145°
2026-04-30 12:36 48.67035 7.01017 35269 ft 444 kts 145°
2026-04-30 12:36 48.61764 7.05884 35264 ft 444 kts 145°
2026-04-30 12:37 48.56485 7.10743 35261 ft 444 kts 145°
2026-04-30 12:37 48.51232 7.15555 35256 ft 445 kts 145°
2026-04-30 12:38 48.45843 7.20181 35258 ft 449 kts 153°
2026-04-30 12:38 48.39907 7.23227 35250 ft 452 kts 159°
2026-04-30 12:39 48.33924 7.26110 35245 ft 452 kts 159°
2026-04-30 12:39 48.27923 7.29004 35243 ft 453 kts 159°
2026-04-30 12:40 48.21921 7.31900 35240 ft 453 kts 159°
2026-04-30 12:40 48.15916 7.34797 35239 ft 453 kts 159°
2026-04-30 12:41 48.09905 7.37673 35239 ft 454 kts 159°
2026-04-30 12:41 48.03922 7.40528 35229 ft 454 kts 159°
2026-04-30 12:42 47.97896 7.43401 35240 ft 454 kts 159°
2026-04-30 12:42 47.91870 7.46265 35228 ft 455 kts 159°
2026-04-30 12:43 47.85838 7.49119 35233 ft 455 kts 159°
2026-04-30 12:43 47.79796 7.51979 35209 ft 455 kts 159°
2026-04-30 12:44 47.73764 7.54888 35205 ft 454 kts 155°
2026-04-30 12:44 47.68016 7.58602 35211 ft 453 kts 153°
2026-04-30 12:45 47.62198 7.62371 35207 ft 454 kts 153°
2026-04-30 12:45 47.56439 7.66080 35213 ft 454 kts 153°
2026-04-30 12:46 47.50639 7.69804 35217 ft 455 kts 153°
2026-04-30 12:46 47.44840 7.73540 35212 ft 455 kts 153°
2026-04-30 12:47 47.39019 7.77287 35212 ft 456 kts 154°
2026-04-30 12:47 47.33193 7.81014 35215 ft 456 kts 154°
2026-04-30 12:48 47.27359 7.84723 35210 ft 457 kts 154°
2026-04-30 12:48 47.21511 7.88446 35204 ft 458 kts 154°
2026-04-30 12:49 47.15656 7.92168 35200 ft 458 kts 154°
2026-04-30 12:49 47.09791 7.95885 35200 ft 459 kts 154°
2026-04-30 12:50 47.03964 7.99566 35192 ft 459 kts 154°
2026-04-30 12:50 46.98085 8.03268 35200 ft 460 kts 154°
2026-04-30 12:51 46.92193 8.06979 35198 ft 461 kts 154°
2026-04-30 12:51 46.86288 8.10683 35179 ft 462 kts 154°
2026-04-30 12:52 46.80380 8.14377 35181 ft 463 kts 154°
2026-04-30 12:52 46.74447 8.18091 35184 ft 464 kts 154°
2026-04-30 12:53 46.68506 8.21794 35185 ft 465 kts 154°
2026-04-30 12:53 46.62551 8.25499 35188 ft 465 kts 155°
2026-04-30 12:54 46.56596 8.29189 35208 ft 464 kts 155°
2026-04-30 12:54 46.53620 8.31028 34927 ft 466 kts 155°
2026-04-30 12:54 46.50607 8.32892 33884 ft 475 kts 154°
2026-04-30 12:55 46.47559 8.34782 32937 ft 478 kts 154°
2026-04-30 12:55 46.44540 8.36649 32095 ft 479 kts 154°
2026-04-30 12:55 46.41475 8.38537 31277 ft 479 kts 154°
2026-04-30 12:55 46.38403 8.40427 30442 ft 480 kts 153°
2026-04-30 12:56 46.35333 8.42310 29457 ft 481 kts 154°
2026-04-30 12:56 46.32231 8.44208 28330 ft 484 kts 154°
2026-04-30 12:56 46.29116 8.46033 27622 ft 482 kts 158°
2026-04-30 12:56 46.25876 8.47281 27367 ft 484 kts 167°
2026-04-30 12:57 46.22523 8.47900 27248 ft 486 kts 172°
2026-04-30 12:57 46.19157 8.48376 26633 ft 487 kts 172°
2026-04-30 12:57 46.15748 8.48869 25181 ft 497 kts 172°
2026-04-30 12:57 46.12281 8.49444 23982 ft 502 kts 167°
2026-04-30 12:58 46.08955 8.50724 23523 ft 485 kts 158°
2026-04-30 12:58 46.05864 8.52386 23388 ft 465 kts 156°
2026-04-30 12:58 46.02881 8.53967 23245 ft 448 kts 157°
2026-04-30 12:58 46.00010 8.55477 23108 ft 431 kts 157°
2026-04-30 12:59 45.97242 8.56936 22973 ft 417 kts 157°
2026-04-30 12:59 45.94568 8.58354 22839 ft 403 kts 156°
2026-04-30 12:59 45.91981 8.59739 22708 ft 390 kts 156°
2026-04-30 12:59 45.89581 8.61338 22574 ft 374 kts 144°
2026-04-30 13:00 45.87525 8.63530 22267 ft 364 kts 137°
2026-04-30 13:00 45.85565 8.65816 21867 ft 361 kts 137°
2026-04-30 13:00 45.83650 8.68045 21492 ft 358 kts 137°
2026-04-30 13:00 45.81718 8.70288 21109 ft 355 kts 138°
2026-04-30 13:01 45.79799 8.72510 20741 ft 353 kts 138°
2026-04-30 13:01 45.77900 8.74705 20357 ft 350 kts 138°
2026-04-30 13:01 45.75944 8.76773 19989 ft 350 kts 148°
2026-04-30 13:01 45.73807 8.78437 19634 ft 348 kts 149°
2026-04-30 13:02 45.71676 8.80075 19267 ft 347 kts 149°
2026-04-30 13:02 45.69553 8.81704 18922 ft 345 kts 149°
2026-04-30 13:02 45.67438 8.83323 18479 ft 346 kts 150°
2026-04-30 13:02 45.65300 8.84961 17942 ft 349 kts 150°
2026-04-30 13:03 45.63179 8.86589 17422 ft 351 kts 150°
2026-04-30 13:03 45.60914 8.87912 16901 ft 355 kts 166°
2026-04-30 13:03 45.58483 8.88611 16341 ft 358 kts 168°
2026-04-30 13:03 45.56014 8.89282 15713 ft 364 kts 168°
2026-04-30 13:04 45.53513 8.89955 15107 ft 368 kts 168°
2026-04-30 13:04 45.50980 8.90633 14502 ft 372 kts 169°
2026-04-30 13:04 45.48423 8.91321 13887 ft 376 kts 169°
2026-04-30 13:04 45.45845 8.92021 13206 ft 378 kts 169°
2026-04-30 13:05 45.43250 8.92727 12549 ft 380 kts 169°
2026-04-30 13:05 45.40633 8.93442 11930 ft 394 kts 168°
2026-04-30 13:05 45.37890 8.94198 11295 ft 404 kts 169°
2026-04-30 13:06 45.32391 8.95730 10064 ft 399 kts 169°
2026-04-30 13:06 45.29684 8.96493 9386 ft 395 kts 169°
2026-04-30 13:06 45.27037 8.97230 8756 ft 390 kts 168°
2026-04-30 13:06 45.24386 8.97957 8123 ft 385 kts 168°
2026-04-30 13:07 45.21773 8.98661 7497 ft 380 kts 169°
2026-04-30 13:07 45.19189 8.99342 6883 ft 375 kts 169°
2026-04-30 13:07 45.16637 9.00009 6252 ft 370 kts 168°
2026-04-30 13:07 45.14118 9.00667 5654 ft 364 kts 168°
2026-04-30 13:08 45.11689 9.01298 5501 ft 346 kts 168°
2026-04-30 13:08 45.09392 9.01880 5378 ft 326 kts 170°
2026-04-30 13:08 45.07197 9.01681 5243 ft 312 kts 197°
2026-04-30 13:08 45.05438 9.00029 5109 ft 303 kts 228°
2026-04-30 13:09 45.04510 8.97438 4985 ft 292 kts 254°
2026-04-30 13:09 45.04185 8.94700 5000 ft 273 kts 264°
2026-04-30 13:09 45.04175 8.92099 5001 ft 258 kts 284°
2026-04-30 13:09 45.04968 8.89944 5008 ft 241 kts 314°
2026-04-30 13:10 45.06225 8.88549 4957 ft 226 kts 339°
2026-04-30 13:10 45.07698 8.87978 4964 ft 217 kts 352°
2026-04-30 13:10 45.09147 8.87575 4885 ft 206 kts 353°
2026-04-30 13:10 45.10511 8.87196 4823 ft 197 kts 352°
2026-04-30 13:11 45.11849 8.86829 4776 ft 196 kts 353°
2026-04-30 13:11 45.13186 8.86464 4729 ft 195 kts 353°
2026-04-30 13:11 45.14524 8.86101 4534 ft 194 kts 353°
2026-04-30 13:11 45.15844 8.85743 4452 ft 193 kts 353°
2026-04-30 13:12 45.16720 8.85508 4388 ft 195 kts 353°
2026-04-30 13:12 45.18044 8.85164 4201 ft 192 kts 354°
2026-04-30 13:12 45.19358 8.84827 4126 ft 191 kts 353°
2026-04-30 13:13 45.21964 8.84162 3992 ft 190 kts 354°
2026-04-30 13:13 45.23269 8.83826 3998 ft 190 kts 353°
2026-04-30 13:13 45.25890 8.83355 4008 ft 190 kts 359°
2026-04-30 13:14 45.27206 8.83127 4004 ft 191 kts 355°
2026-04-30 13:14 45.28504 8.82809 4002 ft 191 kts 353°
2026-04-30 13:14 45.31130 8.82104 4003 ft 192 kts 352°
2026-04-30 13:15 45.32440 8.81747 4004 ft 192 kts 352°
2026-04-30 13:15 45.35063 8.81031 3997 ft 191 kts 352°
2026-04-30 13:15 45.36373 8.80673 4014 ft 192 kts 352°
2026-04-30 13:16 45.37684 8.80314 4013 ft 191 kts 353°
2026-04-30 13:16 45.38990 8.79956 4008 ft 190 kts 352°
2026-04-30 13:16 45.40279 8.79602 4007 ft 183 kts 352°
2026-04-30 13:17 45.42641 8.78955 3538 ft 167 kts 352°
2026-04-30 13:17 45.43780 8.78644 3209 ft 167 kts 353°
2026-04-30 13:17 45.46047 8.78023 2980 ft 165 kts 352°
2026-04-30 13:18 45.47183 8.77710 2998 ft 168 kts 351°
2026-04-30 13:18 45.49364 8.77111 2440 ft 155 kts 352°
2026-04-30 13:18 45.50411 8.76823 2145 ft 155 kts 352°
2026-04-30 13:19 45.51456 8.76536 1989 ft 152 kts 351°
2026-04-30 13:19 45.52503 8.76249 1996 ft 155 kts 352°
2026-04-30 13:19 45.53563 8.75957 2023 ft 156 kts 352°
2026-04-30 13:19 45.54629 8.75664 1997 ft 154 kts 352°
2026-04-30 13:20 45.55685 8.75373 1887 ft 155 kts 352°
2026-04-30 13:20 45.56739 8.75083 1723 ft 155 kts 351°
2026-04-30 13:20 45.57803 8.74790 1504 ft 156 kts 351°
2026-04-30 13:20 45.58859 8.74499 1300 ft 154 kts 351°
2026-04-30 13:21 45.59908 8.74210 1103 ft 152 kts 351°
2026-04-30 13:21 45.60953 8.73931 931 ft 153 kts 350°
2026-04-30 13:21 45.61975 8.73644 772 ft 150 kts 349°
2026-04-30 13:22 45.63511 8.73220 741 ft 49 kts 348°
2026-04-30 13:22 45.63784 8.72991 741 ft 38 kts 310°
2026-04-30 13:22 45.63954 8.72609 740 ft 0 kts 279°
2026-04-30 13:23 45.63955 8.72607 740 ft 3 kts 279°
2026-04-30 13:23 45.64168 8.72497 741 ft 30 kts 348°
2026-04-30 13:24 45.64417 8.72430 741 ft 5 kts 351°
2026-04-30 13:24 45.64492 8.72500 741 ft 2 kts 351°
2026-04-30 13:25 45.64536 8.72481 740 ft 0 kts 350°